Location: Bastrop State Park
(30.1090°N, 97.2819°W)
Time: 22:31:43
(UTC-06:00)

Daily predictions for brighter satellites

Satellite Brightness Start Highest point End
(mag) Time Altitude Azimuth Time Altitude Azimuth Time Altitude Azimuth
Cosmos 1975 Rocket 3.7 18:39:24 10° NNW 18:43:39 61° W 18:47:54 10° S
SKYMED 2 4.3 18:43:07 10° N 18:47:23 58° WNW 18:51:38 10° SSW
Cosmos 1536 4.2 18:45:17 10° SE 18:48:01 18° E 18:50:44 10° NE
Cosmos 44 3.1 18:44:44 10° NNW 18:49:06 84° WSW 18:53:22 10° SSE
GEOS 3 Rocket 3.9 18:44:32 10° NE 18:49:37 49° ESE 18:54:43 10° SSW
Cosmos 1633 2.9 18:48:51 10° SSE 18:52:20 42° E 18:55:50 10° NNE
Cosmos 1023 Rocket 4.5 18:47:59 10° S 18:52:57 58° ESE 18:57:58 10° NNE
COSMOS 2428 4.5 18:51:27 10° NE 18:53:09 11° ENE 18:54:50 10° ENE
Okean 1 3.3 18:54:24 10° N 18:58:26 63° E 19:02:26 10° SSE
Cosmos 1812 3.0 18:54:47 10° N 18:58:38 73° W 19:02:27 10° S
Cosmos 1741 Rocket 4.5 18:55:22 10° SSE 19:00:10 38° E 19:04:58 10° NE
Cosmos 1536 Rocket 3.6 18:58:15 10° N 19:02:40 57° E 19:07:03 10° SSE
Cosmos 2219 3.6 19:02:58 10° S 19:08:20 43° ESE 19:13:44 10° NE
Cosmos 2360 Rocket 2.6 19:07:35 10° N 19:12:52 40° ENE 19:18:08 10° SE
Cosmos 2227 Rocket 4.1 19:13:12 10° ESE 19:13:25 10° ESE 19:13:25 10° ESE
Meteor 1-11 Rocket 3.7 19:12:25 10° S 19:18:08 76° E 19:24:00 10° N
DNEPR-1 R/B 3.7 19:15:03 10° NNW 19:19:14 73° WSW 19:23:40 10° SSE
BREEZE-M DEB (TANK) 3.6 19:15:21 10° WSW 19:21:19 52° NW 19:23:46 12° NNE
Cosmos 1602 3.9 19:17:49 10° S 19:21:40 74° W 19:25:33 10° N
Cosmos 1140 Rocket 3.9 19:18:24 10° SSW 19:23:28 66° WNW 19:28:36 10° N
Cosmos 1461 3.2 19:19:53 10° NNW 19:23:54 66° WSW 19:28:02 10° SSE
Resurs 01 Rocket 2.2 19:20:01 10° SE 19:23:59 34° ENE 19:27:57 10° N
Cosmos 1300 Rocket 3.7 19:20:32 10° S 19:24:55 78° W 19:29:22 10° N
Abrixas rocket 2.8 19:24:02 10° WSW 19:27:19 56° NW 19:29:39 18° NE
DELTA 2 R/B (1) 4.0 19:22:53 10° NW 19:28:19 47° NNE 19:31:31 23° E
ATLAS CENTAUR R/B 2.4 19:22:43 10° SSW 19:29:21 46° SE 19:30:46 28° ENE
Cosmos 614 Rocket 4.1 19:26:07 10° SSW 19:31:11 76° WNW 19:36:16 10° NNE
ASTRO E2 4.3 19:29:09 10° W 19:32:41 29° SSW 19:35:40 13° SSE
OAO 3 Copernicus 4.4 19:27:44 10° WNW 19:32:47 65° NNE 19:35:29 27° E
ALOS 2.2 19:28:13 10° SSE 19:32:49 62° ENE 19:37:26 10° N
FREGAT/IRIS 3.3 19:31:43 10° S 19:34:44 58° W 19:37:47 10° NNW
Spot 2 Rocket 3.6 19:33:58 10° SSE 19:38:49 51° ENE 19:43:43 10° N
Delta R/B 4.4 19:26:27 10° WSW 19:41:35 65° S 19:43:33 32° ESE
Resurs 1-3 3.8 19:37:29 10° SSE 19:41:39 46° ENE 19:45:51 10° N
Cosmos 1340 3.6 19:41:01 10° NNW 19:44:41 50° W 19:48:20 10° S
Cosmos 2181 Rocket 4.1 19:40:21 10° N 19:46:37 78° W 19:52:59 10° S
Cosmos 2333 Rocket 4.1 19:44:58 10° NNE 19:46:14 13° NE 19:46:14 13° NE
Cosmos 2208 Rocket 4.3 19:43:33 10° N 19:48:44 44° ENE 19:50:31 33° ESE
SL-16 R/B 4.1 19:44:35 10° NW 19:49:30 31° WSW 19:54:24 10° SSW
HJ-1C 3.8 19:49:43 10° S 19:53:03 62° W 19:56:24 10° NNW
OTV 4 1.3 19:50:34 10° SW 19:52:48 42° SSW 19:52:48 42° SSW
Cosmos 2074 Rocket 3.9 19:48:34 10° S 19:54:48 86° E 20:01:06 10° N
SJ-6B 4.4 19:52:31 10° SSW 19:56:16 37° W 19:59:58 10° NNW
Helios 1B rocket 2.3 19:54:32 19° NNE 19:57:25 68° ESE 20:01:32 10° S
Cosmos 2184 Rocket 3.9 19:51:30 10° S 19:57:50 87° E 20:04:09 10° N
FengYun 1-2 T 4.3 19:53:01 10° S 19:58:29 78° WSW 20:03:59 10° NNW
Tiangong 2 1.6 19:55:57 10° WNW 19:58:32 56° W 19:58:32 56° W
CZ-3C R/B 2.7 20:01:30 10° SW 20:03:43 15° SSW 20:03:43 15° SSW
Meteor 1-5 Rocket 4.4 19:59:24 10° S 20:05:23 82° W 20:11:21 10° N
FENGYUN 3A 4.1 20:00:14 10° S 20:05:34 63° W 20:10:57 10° NNW
Hubble Space Telescope 1.4 20:03:13 10° WSW 20:06:47 43° S 20:06:47 43° S
BREEZE-M DEB (TANK) 3.8 20:14:45 10° NNW 20:17:19 38° NNE 20:17:19 38° NNE
GPS 2-04 Rocket1 3.7 20:17:15 10° W 20:21:01 44° NNW 20:21:01 44° NNW
H-2A R/B 3.9 20:21:38 36° SW 20:22:24 41° W 20:25:56 10° NNW
Cosmos 2322 4.4 20:16:57 10° NNW 20:22:29 52° WSW 20:27:58 10° S
Cosmos 1025 Rocket 3.5 20:21:12 10° NNW 20:25:31 61° W 20:25:44 60° WSW
Cosmos 2154 Rocket 3.8 20:20:29 10° S 20:26:48 76° E 20:33:09 10° N
Atlas Centaur 2 3.5 20:21:14 10° SW 20:26:14 28° S 20:26:14 28° S
OAO 3 Rocket 4.2 20:22:39 10° SW 20:26:02 38° SSW 20:26:02 38° SSW
Cosmos 2285 Rocket 3.9 20:26:37 10° NNW 20:32:47 73° NE 20:32:47 73° NE
COSMOS 2428 2.7 20:32:18 10° NNW 20:37:44 78° WNW 20:37:44 78° WNW
Cosmos 2297 Rocket 4.4 20:32:58 10° S 20:33:28 13° S 20:33:28 13° S
Cosmos 2333 4.4 20:33:34 10° NNW 20:38:23 64° NNW 20:38:23 64° NNW
Cosmos 2237 Rocket 4.4 20:36:56 10° N 20:37:45 14° N 20:37:45 14° N
Cosmos 2360 Rocket 4.5 20:52:25 10° NW 20:56:29 21° W 21:00:35 10° SSW
Cosmos 2227 Rocket 3.7 20:52:47 10° SSW 20:55:24 28° SW 20:55:24 28° SW
Cosmos 2219 Rocket 3.8 20:53:06 10° NNW 20:55:22 25° NNW 20:55:22 25° NNW
Resurs 01 Rocket 4.5 20:57:56 10° SW 21:00:29 15° W 21:03:01 10° WNW
